TimePDT,TemperatureF,Dew PointF,Humidity,Sea Level PressureIn,VisibilityMPH,Wind Direction,Wind SpeedMPH,Gust SpeedMPH,PrecipitationIn,Events,Conditions,WindDirDegrees,DateUTC
12:55 AM,53.1,30.0,41,29.97,10.0,West,3.5,-,N/A,,Clear,260,2012-10-07 07:55:00
1:55 AM,48.9,28.9,46,29.99,10.0,Calm,Calm,-,N/A,,Partly Cloudy,0,2012-10-07 08:55:00
2:55 AM,50.0,30.0,46,29.97,10.0,Calm,Calm,-,N/A,,Partly Cloudy,0,2012-10-07 09:55:00
3:55 AM,48.0,30.0,50,29.98,10.0,West,4.6,-,N/A,,Clear,260,2012-10-07 10:55:00
4:55 AM,46.9,28.9,50,29.99,10.0,WNW,3.5,-,N/A,,Clear,300,2012-10-07 11:55:00
5:55 AM,43.0,30.0,60,30.01,10.0,Calm,Calm,-,N/A,,Clear,0,2012-10-07 12:55:00
6:55 AM,42.1,28.9,60,30.03,10.0,Calm,Calm,-,N/A,,Clear,0,2012-10-07 13:55:00
7:55 AM,45.0,30.0,56,30.06,10.0,Calm,Calm,-,N/A,,Clear,0,2012-10-07 14:55:00
8:55 AM,48.0,30.0,50,30.06,10.0,Calm,Calm,-,N/A,,Clear,0,2012-10-07 15:55:00
9:55 AM,55.0,30.0,38,30.04,10.0,Calm,Calm,-,N/A,,Clear,0,2012-10-07 16:55:00
10:55 AM,60.1,21.9,23,30.01,10.0,SSE,3.5,-,N/A,,Clear,160,2012-10-07 17:55:00
11:55 AM,64.9,16.0,15,29.99,10.0,East,4.6,-,N/A,,Clear,100,2012-10-07 18:55:00
12:55 PM,70.0,12.0,11,29.96,10.0,East,3.5,-,N/A,,Partly Cloudy,90,2012-10-07 19:55:00
1:55 PM,71.1,10.9,10,29.94,10.0,Variable,3.5,-,N/A,,Partly Cloudy,0,2012-10-07 20:55:00
2:55 PM,72.0,12.9,10,29.90,10.0,SE,3.5,-,N/A,,Partly Cloudy,130,2012-10-07 21:55:00
3:55 PM,73.0,12.9,10,29.89,10.0,ENE,8.1,16.1,N/A,,Partly Cloudy,60,2012-10-07 22:55:00
4:55 PM,73.0,14.0,11,29.88,10.0,East,10.4,-,N/A,,Partly Cloudy,100,2012-10-07 23:55:00
5:55 PM,71.1,15.1,12,29.89,10.0,East,6.9,-,N/A,,Partly Cloudy,90,2012-10-08 00:55:00
6:55 PM,69.1,12.9,11,29.90,10.0,Calm,Calm,-,N/A,,Partly Cloudy,0,2012-10-08 01:55:00
7:55 PM,64.0,16.0,16,29.92,10.0,WNW,4.6,-,N/A,,Clear,300,2012-10-08 02:55:00
8:55 PM,61.0,18.0,19,29.94,10.0,WNW,5.8,-,N/A,,Clear,290,2012-10-08 03:55:00
9:55 PM,57.0,18.0,22,29.93,10.0,WNW,3.5,-,N/A,,Clear,290,2012-10-08 04:55:00
10:55 PM,55.9,21.9,27,29.92,10.0,West,5.8,-,N/A,,Clear,280,2012-10-08 05:55:00
11:55 PM,52.0,24.1,34,29.93,10.0,Calm,Calm,-,N/A,,Clear,0,2012-10-08 06:55:00